Location: Bratislava
(0.0000°N, 17.1167°E)
Time: 04:31:15
(UTC+01:00)

Meteor 2-14 Rocket - Pass Details

Date: 24 January 2021
Orbit: 938 x 955 km, 82.5° (Epoch: 04 March)

Event Time Altitude Azimuth Distance (km) Brightness Sun altitude
Rises 19:18:38 0° 183° (S) 3,598 7.8 -17.7°
Reaches altitude 10° 19:21:07 10° 183° (S) 2,651 7.1 -18.2°
Maximum altitude 19:27:11 88° 93° (E) 942 4.3 -19.7°
Drops below altitude 10° 19:33:14 10° 4° (N) 2,642 6.5 -21.1°
Enters shadow 19:34:08 - 4° (N) 2,986 6.8 -21.3°
